Time,TemperatureF,DewpointF,PressureIn,WindDirection,WindDirectionDegrees,WindSpeedMPH,WindSpeedGustMPH,Humidity,HourlyPrecipIn,Conditions,Clouds,dailyrainin,SoftwareType,DateUTC
2013-02-21 00:06:00,22.4,9.9,30.09,North,-999,16.1,-999.0,58,-99.99,,,-99.99,Acu-Link.com,2013-02-21 06:06:00,
2013-02-21 00:21:00,22.2,10.1,30.09,North,-999,8.0,-999.0,59,-99.99,,,-99.99,Acu-Link.com,2013-02-21 06:21:00,
2013-02-21 00:36:00,22.1,10.0,30.10,North,-999,6.4,-999.0,59,-99.99,,,-99.99,Acu-Link.com,2013-02-21 06:36:00,
2013-02-21 00:51:00,22.1,10.7,30.09,North,-999,4.8,-999.0,61,-99.99,,,-99.99,Acu-Link.com,2013-02-21 06:51:00,
2013-02-21 01:07:00,21.9,10.5,30.08,North,-999,8.0,-999.0,61,-99.99,,,-99.99,Acu-Link.com,2013-02-21 07:07:00,
2013-02-21 01:22:00,21.8,10.4,30.07,North,-999,11.2,-999.0,61,-99.99,,,-99.99,Acu-Link.com,2013-02-21 07:22:00,
2013-02-21 01:37:00,21.6,11.0,30.06,North,-999,6.4,-999.0,63,-99.99,,,-99.99,Acu-Link.com,2013-02-21 07:37:00,
2013-02-21 01:53:00,21.4,10.8,30.04,North,-999,14.5,-999.0,63,-99.99,,,-99.99,Acu-Link.com,2013-02-21 07:53:00,
2013-02-21 02:08:00,21.2,10.6,30.05,North,-999,14.5,-999.0,63,-99.99,,,-99.99,Acu-Link.com,2013-02-21 08:08:00,
2013-02-21 02:23:00,21.0,10.8,30.05,North,-999,12.8,-999.0,64,-99.99,,,-99.99,Acu-Link.com,2013-02-21 08:23:00,
2013-02-21 02:39:00,20.8,10.6,30.03,North,-999,12.8,-999.0,64,-99.99,,,-99.99,Acu-Link.com,2013-02-21 08:39:00,
2013-02-21 02:54:00,20.6,10.7,29.99,North,-999,22.5,-999.0,65,-99.99,,,-99.99,Acu-Link.com,2013-02-21 08:54:00,
2013-02-21 03:21:00,20.2,10.7,29.98,North,-999,19.3,-999.0,66,-99.99,,,-99.99,Acu-Link.com,2013-02-21 09:21:00,
2013-02-21 03:36:00,20.3,10.4,29.98,North,-999,16.1,-999.0,65,-99.99,,,-99.99,Acu-Link.com,2013-02-21 09:36:00,
2013-02-21 03:51:00,20.4,10.9,30.00,North,-999,9.6,-999.0,66,-99.99,,,-99.99,Acu-Link.com,2013-02-21 09:51:00,
2013-02-21 04:07:00,20.4,10.2,29.99,North,-999,14.5,-999.0,64,-99.99,,,-99.99,Acu-Link.com,2013-02-21 10:07:00,
2013-02-21 04:22:00,20.4,10.5,29.97,North,-999,11.2,-999.0,65,-99.99,,,-99.99,Acu-Link.com,2013-02-21 10:22:00,
2013-02-21 04:37:00,20.3,10.1,29.97,North,-999,14.5,-999.0,64,-99.99,,,-99.99,Acu-Link.com,2013-02-21 10:37:00,
2013-02-21 04:53:00,20.3,10.1,29.96,North,-999,22.5,-999.0,64,-99.99,,,-99.99,Acu-Link.com,2013-02-21 10:53:00,
2013-02-21 05:08:00,20.2,10.0,29.95,North,-999,17.7,-999.0,64,-99.99,,,-99.99,Acu-Link.com,2013-02-21 11:08:00,
2013-02-21 05:23:00,20.2,10.0,29.96,North,-999,20.9,-999.0,64,-99.99,,,-99.99,Acu-Link.com,2013-02-21 11:23:00,
2013-02-21 05:38:00,20.2,10.7,29.97,North,-999,14.5,-999.0,66,-99.99,,,-99.99,Acu-Link.com,2013-02-21 11:38:00,
2013-02-21 05:53:00,20.2,10.3,29.97,North,-999,16.1,-999.0,65,-99.99,,,-99.99,Acu-Link.com,2013-02-21 11:53:00,
2013-02-21 06:09:00,20.1,10.6,29.97,North,-999,16.1,-999.0,66,-99.99,,,-99.99,Acu-Link.com,2013-02-21 12:09:00,
2013-02-21 06:24:00,20.2,10.7,29.96,North,-999,20.9,-999.0,66,-99.99,,,-99.99,Acu-Link.com,2013-02-21 12:24:00,
2013-02-21 06:39:00,20.2,11.0,29.95,North,-999,12.8,-999.0,67,-99.99,,,-99.99,Acu-Link.com,2013-02-21 12:39:00,
2013-02-21 06:55:00,20.1,10.6,29.95,North,-999,22.5,-999.0,66,-99.99,,,-99.99,Acu-Link.com,2013-02-21 12:55:00,
2013-02-21 07:10:00,20.2,10.7,29.95,North,-999,19.3,-999.0,66,-99.99,,,-99.99,Acu-Link.com,2013-02-21 13:10:00,
2013-02-21 07:26:00,20.3,11.1,29.95,North,-999,11.2,-999.0,67,-99.99,,,-99.99,Acu-Link.com,2013-02-21 13:26:00,
2013-02-21 07:41:00,20.3,10.8,29.95,North,-999,17.7,-999.0,66,-99.99,,,-99.99,Acu-Link.com,2013-02-21 13:41:00,
2013-02-21 07:56:00,20.5,10.6,29.96,North,-999,11.2,-999.0,65,-99.99,,,-99.99,Acu-Link.com,2013-02-21 13:56:00,
2013-02-21 08:12:00,20.7,11.2,29.97,North,-999,9.6,-999.0,66,-99.99,,,-99.99,Acu-Link.com,2013-02-21 14:12:00,
2013-02-21 08:27:00,20.7,11.5,29.96,North,-999,12.8,-999.0,67,-99.99,,,-99.99,Acu-Link.com,2013-02-21 14:27:00,
2013-02-21 08:42:00,20.8,11.3,29.97,North,-999,19.3,-999.0,66,-99.99,,,-99.99,Acu-Link.com,2013-02-21 14:42:00,
2013-02-21 08:57:00,20.8,11.3,29.98,North,-999,17.7,-999.0,66,-99.99,,,-99.99,Acu-Link.com,2013-02-21 14:57:00,
2013-02-21 09:13:00,20.9,12.0,29.96,North,-999,12.8,-999.0,68,-99.99,,,-99.99,Acu-Link.com,2013-02-21 15:13:00,
2013-02-21 09:28:00,21.5,12.3,29.95,North,-999,11.2,-999.0,67,-99.99,,,-99.99,Acu-Link.com,2013-02-21 15:28:00,
2013-02-21 09:43:00,21.6,12.0,29.94,North,-999,25.7,-999.0,66,-99.99,,,-99.99,Acu-Link.com,2013-02-21 15:43:00,
2013-02-21 09:59:00,21.6,12.0,29.94,North,-999,22.5,-999.0,66,-99.99,,,-99.99,Acu-Link.com,2013-02-21 15:59:00,
2013-02-21 10:14:00,22.0,12.4,29.92,North,-999,14.5,-999.0,66,-99.99,,,-99.99,Acu-Link.com,2013-02-21 16:14:00,
2013-02-21 10:29:00,21.6,12.7,29.91,North,-999,19.3,-999.0,68,-99.99,,,-99.99,Acu-Link.com,2013-02-21 16:29:00,
2013-02-21 10:45:00,20.5,16.2,29.90,North,-999,14.5,-999.0,83,-99.99,,,-99.99,Acu-Link.com,2013-02-21 16:45:00,
2013-02-21 11:00:00,20.4,16.4,29.89,North,-999,17.7,-999.0,84,-99.99,,,-99.99,Acu-Link.com,2013-02-21 17:00:00,
2013-02-21 11:15:00,20.5,16.7,29.89,North,-999,16.1,-999.0,85,-99.99,,,-99.99,Acu-Link.com,2013-02-21 17:15:00,
2013-02-21 11:30:00,20.7,16.9,29.88,North,-999,14.5,-999.0,85,-99.99,,,-99.99,Acu-Link.com,2013-02-21 17:30:00,
2013-02-21 11:45:00,21.0,17.5,29.87,North,-999,17.7,-999.0,86,-99.99,,,-99.99,Acu-Link.com,2013-02-21 17:45:00,
2013-02-21 12:01:00,20.5,17.5,29.85,North,-999,22.5,-999.0,88,-99.99,,,-99.99,Acu-Link.com,2013-02-21 18:01:00,
2013-02-21 12:16:00,20.6,18.4,29.85,North,-999,17.7,-999.0,91,-99.99,,,-99.99,Acu-Link.com,2013-02-21 18:16:00,
2013-02-21 12:31:00,20.7,18.8,29.84,North,-999,9.6,-999.0,92,-99.99,,,-99.99,Acu-Link.com,2013-02-21 18:31:00,
2013-02-21 12:46:00,20.7,19.0,29.85,North,-999,12.8,-999.0,93,-99.99,,,-99.99,Acu-Link.com,2013-02-21 18:46:00,
2013-02-21 13:02:00,20.8,19.1,29.83,North,-999,17.7,-999.0,93,-99.99,,,-99.99,Acu-Link.com,2013-02-21 19:02:00,
2013-02-21 13:17:00,21.0,19.0,29.82,North,-999,19.3,-999.0,92,-99.99,,,-99.99,Acu-Link.com,2013-02-21 19:17:00,
2013-02-21 13:33:00,21.1,19.1,29.81,North,-999,14.5,-999.0,92,-99.99,,,-99.99,Acu-Link.com,2013-02-21 19:33:00,
2013-02-21 13:48:00,21.1,18.9,29.80,North,-999,25.7,-999.0,91,-99.99,,,-99.99,Acu-Link.com,2013-02-21 19:48:00,
2013-02-21 14:18:00,21.4,19.4,29.79,North,-999,17.7,-999.0,92,-99.99,,,-99.99,Acu-Link.com,2013-02-21 20:18:00,
2013-02-21 14:34:00,20.7,18.8,29.78,North,-999,20.9,-999.0,92,-99.99,,,-99.99,Acu-Link.com,2013-02-21 20:34:00,
2013-02-21 14:49:00,21.3,19.3,29.77,North,-999,12.8,-999.0,92,-99.99,,,-99.99,Acu-Link.com,2013-02-21 20:49:00,
2013-02-21 15:04:00,20.8,18.6,29.78,North,-999,16.1,-999.0,91,-99.99,,,-99.99,Acu-Link.com,2013-02-21 21:04:00,
2013-02-21 15:19:00,20.7,18.5,29.76,North,-999,17.7,-999.0,91,-99.99,,,-99.99,Acu-Link.com,2013-02-21 21:19:00,
2013-02-21 15:34:00,20.9,18.9,29.77,North,-999,17.7,-999.0,92,-99.99,,,-99.99,Acu-Link.com,2013-02-21 21:34:00,
2013-02-21 15:49:00,21.2,19.0,29.76,North,-999,11.2,-999.0,91,-99.99,,,-99.99,Acu-Link.com,2013-02-21 21:49:00,
2013-02-21 16:05:00,21.2,19.2,29.76,North,-999,19.3,-999.0,92,-99.99,,,-99.99,Acu-Link.com,2013-02-21 22:05:00,
2013-02-21 16:20:00,21.1,18.9,29.75,North,-999,24.1,-999.0,91,-99.99,,,-99.99,Acu-Link.com,2013-02-21 22:20:00,
2013-02-21 16:35:00,21.2,19.0,29.74,North,-999,19.3,-999.0,91,-99.99,,,-99.99,Acu-Link.com,2013-02-21 22:35:00,
2013-02-21 16:51:00,20.7,18.2,29.74,North,-999,14.5,-999.0,90,-99.99,,,-99.99,Acu-Link.com,2013-02-21 22:51:00,
2013-02-21 17:06:00,20.3,17.8,29.74,North,-999,22.5,-999.0,90,-99.99,,,-99.99,Acu-Link.com,2013-02-21 23:06:00,
2013-02-21 17:21:00,20.3,17.8,29.74,North,-999,17.7,-999.0,90,-99.99,,,-99.99,Acu-Link.com,2013-02-21 23:21:00,
2013-02-21 17:37:00,20.2,18.3,29.74,North,-999,20.9,-999.0,92,-99.99,,,-99.99,Acu-Link.com,2013-02-21 23:37:00,
2013-02-21 17:52:00,20.0,18.1,29.74,North,-999,24.1,-999.0,92,-99.99,,,-99.99,Acu-Link.com,2013-02-21 23:52:00,
2013-02-21 18:07:00,19.9,18.0,29.74,North,-999,17.7,-999.0,92,-99.99,,,-99.99,Acu-Link.com,2013-02-22 00:07:00,
2013-02-21 18:23:00,19.7,18.0,29.74,North,-999,20.9,-999.0,93,-99.99,,,-99.99,Acu-Link.com,2013-02-22 00:23:00,
2013-02-21 18:38:00,19.7,18.0,29.74,North,-999,14.5,-999.0,93,-99.99,,,-99.99,Acu-Link.com,2013-02-22 00:38:00,
2013-02-21 18:53:00,19.7,18.0,29.74,North,-999,20.9,-999.0,93,-99.99,,,-99.99,Acu-Link.com,2013-02-22 00:53:00,
2013-02-21 19:08:00,19.8,18.1,29.75,North,-999,12.8,-999.0,93,-99.99,,,-99.99,Acu-Link.com,2013-02-22 01:08:00,
2013-02-21 19:24:00,19.7,18.3,29.75,North,-999,14.5,-999.0,94,-99.99,,,-99.99,Acu-Link.com,2013-02-22 01:24:00,